Orbital Elements at Epoch 2459200.5 (2020-Dec-17.0) TDB
Reference: JPL 21 (heliocentric ecliptic J2000)
Element | Value | Uncertainty (1-sigma) | Units |
e | .1221554526813009 | 4.7586e-08 | |
a | 2.726088582737503 | 1.0499e-08 | au |
q | 2.393081997863877 | 1.3135e-07 | au |
i | 4.739827178090424 | 5.0946e-06 | deg |
node | 188.2498791823083 | 3.6164e-05 | deg |
peri | 170.2476764695405 | 3.9054e-05 | deg |
M | 14.63856162676728 | 1.3093e-05 | deg |
tp | 2459133.649558883260 (2020-Oct-11.14955888) | 5.9753e-05 | TDB |
period | 1644.02483082903 4.50 | 9.4974e-06 2.6e-08 | d yr |
n | .218974794814056 | 1.265e-09 | deg/d |
Q | 3.059095167611128 | 1.1781e-08 | au |
|
| | Orbit Determination Parameters
Additional Information
|